sat.trackr.live / text

‹ back to catalog

BANDWAGON-2 OBJECT V

NORAD 62396 · 2024-247V

PAYLOAD ACTIVE UNKNOWN

§ Identity

Operator
Country
TBD
Launch date
2024-12-21
Launch site
AFWTR
Launch vehicle
Mass (kg)
RCS (m²)

External: N2YO · Heavens-Above · Gunter

§ Orbital elements

Epoch: 2026-09-21T17:10:33.657312Z

Period
92.17 min
Inclination
44.9901°
Eccentricity
0.0008622
Mean motion
15.62332033 rev/d
Perigee alt
375.1 km
Apogee alt
386.8 km
Semi-major
6,759.1 km
B*
6.4990e-4
RAAN
58.4041°
Arg perigee
261.6486°
Mean anomaly
98.3432°
Rev number
9,852

§ Raw data

BANDWAGON-2 OBJECT V1 62396U 24247V   26264.71566733  .00059056  00000+0  64990-3 0  99982 62396  44.9901  58.4041 0008622 261.6486  98.3432 15.62332033 98529

JSON: /api/v1/satellites/62396 · /tle

For live sub-satellite position, see the globe view (requires WebGL).

§ Visibility from observer

Set your observer location to see the next 7 days of passes ≥ 10°. The values pass through the URL so the page stays shareable.

No JS? Fill the form by hand. The geolocation button needs JavaScript.